Location: Lake Crest
(37.6062°N, 88.9176°W)
Time: 21:16:24
(UTC+00:00)

CSL-04 Debris - Pass Details

Date: 15 December 2019
Orbit: 827 x 849 km, 99.0° (Epoch: 17 January)

Event Time Altitude Azimuth Distance (km) Brightness Sun altitude
Rises 00:01:57 0° 149° (SSE) 3,386 7.2 -16.1°
Reaches altitude 10° 00:04:22 10° 144° (SE) 2,452 6.4 -16.6°
Maximum altitude 00:09:35 49° 71° (ENE) 1,077 4.3 -17.5°
Drops below altitude 10° 00:14:47 10° 358° (N) 2,453 6.5 -18.5°
Sets 00:17:12 0° 353° (N) 3,387 7.3 -19.0°
